Regional Weather Roundup
Issued by NWS

Home | Current Version | Previous Version | Text Only | Print | Product List | Glossary Off
Versions: 1 2 3 4 5 6 7 8 9 10 11 12 13 14 15 16 17 18 19 20 21 22 23 24 25 26 27 28 29 30 31 32 33 34 35 36 37 38 39 40 41 42 43 44 45 46 47 48 49 50

000
ASUS43 KLMK 172210
RWRKY
KENTUCKY REGIONAL WEATHER ROUNDUP
NATIONAL WEATHER SERVICE LOUISVILLE KY
600 PM EDT FRI APR 17 2015

NOTE "FAIR" INDICATES FEW OR NO CLOUDS BELOW 12,000 FEET
WITH NO SIGNIFICANT WEATHER AND/OR OBSTRUCTIONS TO VISIBILITY.

KYZ001>023-026-027-061>063-070>075-172300-
WESTERN AND SOUTH CENTRAL KENTUCKY

CITY           SKY/WX    TMP DP  RH WIND       PRES   REMARKS
PADUCAH        MOSUNNY   76  62  62 SE6       29.98F
HENDERSON      PTSUNNY   73  61  64 N6        29.99F
OWENSBORO      CLOUDY    75  62  64 S7        30.01F
HOPKINSVILLE   PTSUNNY   72  63  73 NE5       30.00F
BOWLING GREEN  CLOUDY    73  59  61 CALM      30.02F
GLASGOW        CLOUDY    71  59  66 CALM      30.02F
$$

KYZ024-025-028>034-038-045-046-053-172300-
NORTH CENTRAL KENTUCKY

CITY           SKY/WX    TMP DP  RH WIND       PRES   REMARKS
LOUISVILLE/SDF CLOUDY    76  56  49 CALM      30.00F
LOUISVILLE/LOU CLOUDY    76  54  46 N3        30.01F
FORT KNOX      CLOUDY    74  58  58 W3        30.00F
$$

KYZ035>037-039>044-047>052-055>060-089>105-172300-
NORTHEAST KENTUCKY

CITY           SKY/WX    TMP DP  RH WIND       PRES   REMARKS
LEXINGTON      CLOUDY    71  60  68 W3        30.03F
COVINGTON      CLOUDY    74  48  39 N5        30.02F
FRANKFORT      CLOUDY    71  58  63 SW3       30.01F
$$

KYZ054-064>069-076>088-106>120-172300-
SOUTHEAST KENTUCKY

CITY           SKY/WX    TMP DP  RH WIND       PRES   REMARKS
JACKSON        PTSUNNY   74  54  49 NW5       30.02F
LONDON         MOSUNNY   76  52  43 SW3       30.01F
SOMERSET       CLOUDY    70  55  60 N5        30.03F
MIDDLESBORO    PTSUNNY   72  58  60 S3        30.02S
MONTICELLO     MOCLDY    73  60  63 VRB5      30.05F
$$




USA.gov is the U.S. government's official web portal to all federal, state and local government web resources and services.